Regional Weather Roundup
Issued by NWS Green Bay, WI

Home | Current Version | Previous Version | Graphics & Text | Print | Product List | Glossary Off
Versions: 1 2 3 4 5 6 7 8 9 10 11 12 13 14 15 16 17 18 19 20 21 22 23 24 25 26 27 28 29 30 31 32 33 34 35 36 37 38 39 40 41 42 43 44 45 46 47 48 49 50

501
ASUS43 KGRB 251400
RWRGRB

NORTH-CENTRAL AND NORTHEAST WISCONSIN REGIONAL WEATHER ROUNDUP
NATIONAL WEATHER SERVICE GREEN BAY WI
900 AM CDT MON JUL 25 2016

WIZ005-009-010>012-018-019-251500-
NORTH CENTRAL WISCONSIN

CITY           SKY/WX    TMP DP  RH WIND       PRES   REMARKS
IRONWOOD       SUNNY     70  63  78 NW8       29.98S
MANITOWISH WTR NOT AVBL
ARBOR VITAE    NOT AVBL
EAGLE RIVER    NOT AVBL
LAND O LAKES   NOT AVBL
RHINELANDER    SUNNY     71  59  65 W10       30.02R
PHILLIPS       NOT AVBL
ANTIGO         NOT AVBL
TOMAHAWK       NOT AVBL
MERRILL        NOT AVBL
$$

WIZ013-073-251500-
NORTHEAST WISCONSIN

CITY           SKY/WX    TMP DP  RH WIND       PRES   REMARKS
IRON MOUNTAIN  SUNNY     73  58  59 NW18G25   29.93S
MARINETTE        N/A    N/A N/A N/A VRB6        N/A
$$

WIZ017-030-035>037-045-251500-
CENTRAL WISCONSIN

CITY           SKY/WX    TMP DP  RH WIND       PRES   REMARKS
MEDFORD        NOT AVBL
WAUSAU         SUNNY     72  62  71 NW9       30.00R
MOSINEE        SUNNY     72  64  78 W9        30.03R
MARSHFIELD     SUNNY     72  63  73 W9        30.03R
WISC RAPIDS    SUNNY     73  62  68 NW7       30.04R
STEVENS POINT  NOT AVBL
WAUPACA        NOT AVBL
SHAWANO        NOT AVBL
CLINTONVILLE   SUNNY     73  61  64 NW6       29.99S
WAUTOMA        SUNNY     74  65  73 NW7       30.02R
$$

WIZ038-039-048-051-251500-
FOX VALLEY

CITY           SKY/WX    TMP DP  RH WIND       PRES   REMARKS
NWS GREEN BAY  SUNNY     74  67  78 W9        29.97S
APPLETON       MOSUNNY   72  63  73 W8        29.98R
OSHKOSH        SUNNY     74  64  71 NW9       29.99S
FOND DU LAC    SUNNY     76  65  68 NW8       29.99S
$$

WIZ022-050-052-251500-
EAST CENTRAL WISCONSIN

CITY           SKY/WX    TMP DP  RH WIND       PRES   REMARKS
EPHRAIM        FAIR      72  64  74 W8        29.93R
WASHINGTON ISL NOT AVBL
STURGEON BAY   SUNNY     74  63  68 W8        29.96R
MANITOWOC      NOT AVBL
SHEBOYGAN      SUNNY     76  65  68 NW7       29.97F
$$

LMZ563-521-522-541>543-251500-
LAKESHORE

STATION/POSITION TIME  TEMP    WIND        PRES    VSBY  WAVE
                       AIR SEA DIR/SP/G                  HT/PER
                 (UTC) (F)     (DEG/KT/KT) (MB)    (MI)  (FT/S)
SHEBOYGAN LKSHOR 1300   73     290/ 12/ 15 1014.6R
KEWAUNEE LKSHORE 1300   72     290/  7/ 11 1013.9R
NORTHPORT PIER   1300   73     280/  7/ 13 1012.9R
N MID LAKE BUOY  1250   69 68  260/ 12/ 14 1011.6R         2/ 6
CHAMBERS ISLAND  1300   73     230/  4/  7 1013.2R
MENOMINEE LKSHOR 1300   72     270/  6/ 12 1012.7R
$$




USA.gov is the U.S. government's official web portal to all federal, state and local government web resources and services.